{"data":{"norad_id":68357,"epoch":"2026-05-25T08:37:27.786432Z","epoch_age_seconds":39996,"freshness":"FRESH","line1":"1 68357U 26060H   26145.35934938  .00001029  00000+0  18840-3 0  9990","line2":"2 68357  54.9844 129.0193 0012898  88.7969 271.4507 14.73562343  9402","mean_motion":14.73562343,"eccentricity":0.0012898,"inclination_deg":54.9844,"raan_deg":129.0193,"arg_perigee_deg":88.7969,"mean_anomaly_deg":271.4507,"bstar":0.0001884,"rev_number":940,"period_min":97.722366945692,"perigee_km":640.6541051894,"apogee_km":658.78316158128,"semimajor_km":7027.8556333853,"source":"CELESTRAK","updated_at":"2026-05-25T13:38:07.762270Z"}}